[[{"header":{"parameterUnit":"m.s-1","parameterCategory":2,"la1":30.2991,"la2":30.254,"lo1":-89.0895,"lo2":-89.0444,"dy":0.0017,"dx":0.0017,"nx":28,"ny":28,"refTime":"2025-07-23T03:00:00:Z","depth":"0","parameterNumber":2,"parameterNumberName":"U-component_of_CURRENTS"},"data":[0,0,0,0,0,0,0,0,0,0,0,0,0,0,0,0,0,0,0,0,0,0,0,0,0,0,0,0,0,0,0,0,0,0,0,0,0,0,0,0,0,0,0,0,0,0,0,0,0,0,0,0,0,0,0,0,0,0,-0.4192,-0.4192,0,-0.4231,-0.4231,-0.4232,-0.4092,-0.4088,-0.4084,-0.408,-0.3969,-0.397,-0.3971,0,0,0,0,0,0,0,0,0,0,0,0,0,-0.3872,-0.388,-0.4192,-0.4192,-0.4193,-0.4231,-0.4231,-0.4232,-0.4093,-0.4088,-0.4083,-0.4078,-0.3969,-0.397,-0.3971,0,0,0,0,0,0,0,0,0,0,0,0,0,-0.3973,-0.3882,-0.4192,-0.4127,-0.4121,-0.4231,-0.4231,-0.4232,-0.4094,-0.4088,-0.4081,-0.4075,-0.3968,-0.397,-0.3972,-0.4111,0,0,-0.3977,-0.3977,0,0,0,0,0,0,0,0,-0.3968,-0.3985,-0.4136,-0.4132,-0.4126,-0.4149,-0.4078,-0.4184,-0.4096,-0.4106,-0.408,-0.4072,-0.4019,-0.4017,-0.4042,-0.4106,-0.4101,-0.3977,-0.3978,-0.3978,-0.3979,0,0,0,0,0,0,0,-0.3961,-0.3982,-0.4209,-0.4137,-0.4131,-0.4052,-0.4061,-0.4097,-0.4097,-0.4105,-0.4094,-0.4098,-0.4014,-0.4041,-0.4038,-0.4099,-0.3977,-0.3978,-0.3979,-0.398,-0.4145,-0.4148,0,0,0,0,0,0,-0.3969,-0.3978,-0.4208,-0.421,-0.4027,-0.4064,-0.4073,-0.4149,-0.41,-0.4087,-0.4104,-0.4092,-0.4042,-0.4037,-0.4034,-0.4111,-0.3978,-0.398,-0.3981,-0.4141,-0.4146,-0.4149,0,0,0,0,0,0,-0.3964,-0.3993,-0.4206,-0.4087,-0.4108,-0.4077,-0.4163,-0.4153,-0.4148,-0.41,-0.4083,-0.4103,-0.4036,-0.4031,-0.404,-0.4107,-0.3981,-0.3982,-0.4137,-0.4143,-0.4147,-0.432,0,0,0,0,0,0,-0.3956,-0.3992,-0.4044,-0.4092,-0.4116,-0.4261,-0.4168,-0.4159,-0.4161,-0.4145,-0.4096,-0.408,-0.4031,-0.4038,-0.4042,-0.4107,-0.3983,-0.4133,-0.414,-0.4146,-0.431,-0.433,-0.4347,0,0,0,0,0,-0.3945,-0.3999,-0.4048,-0.4074,-0.4193,-0.4264,-0.427,-0.4222,-0.4168,-0.4189,-0.4142,-0.408,-0.408,-0.4044,-0.4046,-0.4114,-0.413,-0.4138,-0.4145,-0.4301,-0.4326,-0.4347,0,0,0,0,0,0,-0.3855,-0.3994,-0.4045,-0.4137,-0.4209,-0.4238,-0.4229,-0.4238,-0.423,-0.4191,-0.4133,-0.4119,-0.4151,-0.4121,-0.4081,-0.418,-0.4095,-0.4103,-0.4212,-0.4235,-0.4254,-0.4242,-0.3985,0,0,0,0,0,-0.3887,-0.397,-0.4092,-0.4158,-0.4196,-0.4235,-0.4252,-0.4253,-0.4254,-0.4242,-0.4218,-0.4192,-0.4205,-0.42,-0.4201,-0.4274,-0.4215,-0.4317,-0.4336,-0.4352,-0.4346,-0.436,-0.438,-0.4175,-0.4174,-0.4174,0,0,-0.3857,-0.3948,-0.3989,-0.4146,-0.418,-0.4262,-0.4225,-0.4263,-0.4323,-0.4238,-0.4272,-0.426,-0.4237,-0.4296,-0.431,-0.4267,-0.4375,-0.4362,-0.4376,-0.436,-0.437,-0.439,-0.4407,-0.418,-0.4179,-0.4178,0,0,-0.3819,-0.3942,-0.3996,-0.4093,-0.4192,-0.4248,-0.427,-0.4344,-0.4359,-0.4443,-0.438,-0.4418,-0.4436,-0.4446,-0.445,-0.459,-0.4474,-0.4575,-0.4667,-0.4683,-0.4699,-0.4713,-0.4636,-0.4641,-0.4586,-0.4587,-0.4587,0,-0.3779,-0.3898,-0.401,-0.4102,-0.4159,-0.425,-0.4315,-0.4394,-0.446,-0.4489,-0.4457,-0.4529,-0.4522,-0.4601,-0.4635,-0.4637,-0.4569,-0.4583,-0.4707,-0.4719,-0.473,-0.4647,-0.4651,-0.4596,-0.4595,-0.4594,-0.4593,0,-0.3812,-0.3907,-0.3932,-0.4109,-0.4199,-0.4262,-0.4413,-0.4484,-0.4528,-0.4608,-0.47,-0.4727,-0.475,-0.4787,-0.4751,-0.484,-0.4737,-0.4728,-0.4645,-0.4761,-0.4666,-0.4667,-0.4609,-0.4606,-0.4603,-0.4601,0,0,-0.3724,-0.3915,-0.3933,-0.4011,-0.421,-0.429,-0.4412,-0.4557,-0.4613,-0.4748,-0.4805,-0.4926,-0.4938,-0.4943,-0.4936,-0.4973,-0.5008,-0.4876,-0.4872,-0.4789,-0.4947,-0.4564,-0.4526,-0.4998,-0.5,-0.5002,-0.4838,0,-0.3706,-0.3844,-0.3957,-0.4088,-0.4171,-0.4317,-0.4426,-0.4584,-0.4683,-0.4774,-0.4896,-0.4951,-0.5004,-0.499,-0.5065,-0.5013,-0.502,-0.5047,-0.4853,-0.4846,-0.4486,-0.452,-0.4318,-0.4127,-0.4838,-0.4838,-0.4838,0,-0.3713,-0.3812,-0.3917,-0.4091,-0.4139,-0.4238,-0.4408,-0.4525,-0.4704,-0.4766,-0.4893,-0.4948,-0.5067,-0.5057,-0.5111,-0.5106,-0.5032,-0.5002,-0.4995,-0.4573,-0.4465,-0.4133,-0.41,-0.411,-0.4838,-0.4838,-0.4838,0,-0.3605,-0.3785,-0.3855,-0.3934,-0.4153,-0.4206,-0.4318,-0.4508,-0.4586,-0.4737,-0.4752,-0.4946,-0.493,-0.5011,-0.4962,-0.5028,-0.4916,-0.5008,-0.4598,-0.4568,-0.4322,-0.4263,-0.4265,-0.4998,-0.4998,-0.4998,-0.4999,0,-0.3556,-0.3607,-0.3812,-0.3867,-0.3965,-0.4145,-0.4238,-0.4358,-0.4495,-0.4547,-0.4725,-0.4721,-0.4901,-0.4865,-0.4915,-0.4695,-0.4883,-0.458,-0.4502,-0.4366,-0.4317,-0.4248,-0.4317,-0.4992,-0.4994,-0.4995,-0.4996,0,-0.3399,-0.3527,-0.363,-0.3845,-0.391,-0.3987,-0.417,-0.4217,-0.4351,-0.4388,-0.4413,-0.4515,-0.4437,-0.4519,-0.4519,-0.4491,-0.4305,-0.4267,-0.4024,-0.3918,-0.357,-0.3653,-0.3458,-0.3372,-0.3865,-0.3854,-0.3845,0,-0.3319,-0.3352,-0.3587,-0.3628,-0.3707,-0.3844,-0.3904,-0.4117,-0.415,-0.4235,-0.4199,-0.4122,-0.4004,-0.3834,-0.3763,-0.3675,-0.3817,-0.3405,-0.3528,-0.3468,-0.3514,-0.36,-0.3556,-0.3292,-0.3279,-0.3269,-0.3261,0,-0.3124,-0.3207,-0.3287,-0.3404,-0.3482,-0.3585,-0.3682,-0.3701,-0.3878,-0.3864,-0.375,-0.3652,-0.3421,-0.3182,-0.2974,-0.2963,-0.331,-0.3175,-0.3252,-0.3134,-0.3102,-0.3004,-0.3442,-0.3169,-0.3178,-0.3185,-0.3189,-0.3193,-0.292,-0.2935,-0.3026,-0.3113,-0.3196,-0.3211,-0.3187,-0.3274,-0.3249,-0.3157,-0.323,-0.2988,-0.283,-0.2491,-0.2434,-0.2278,-0.2501,-0.2344,-0.2468,-0.2575,-0.2431,-0.2554,-0.2095,-0.2097,-0.21,-0.2102,-0.2104,0,-0.2607,-0.2636,-0.2707,-0.2764,-0.2721,-0.2892,-0.2923,-0.2838,-0.268,-0.2672,-0.2511,-0.2275,-0.1998,-0.1977,-0.1805,-0.1704,-0.1799,-0.1736,-0.1977,-0.1986,-0.2206,-0.2118,-0.1472,-0.1472,-0.1472,-0.1472,-0.1472,-0.1472,-0.2411,-0.2338,-0.2404,-0.2243,-0.2279,-0.2144,-0.2104,-0.2049,-0.201,-0.1784,-0.1684,-0.1609,-0.1675,-0.1762,-0.1644,-0.1562,-0.1677,-0.1506,-0.1654,-0.1997,-0.2072,-0.2145,-0.2082,-0.1439,-0.1439,-0.1382,-0.1382,-0.1382]},{"header":{"parameterUnit":"m.s-1","parameterCategory":2,"la1":30.2991,"la2":30.254,"lo1":-89.0895,"lo2":-89.0444,"dy":0.0017,"dx":0.0017,"nx":28,"ny":28,"refTime":"2025-07-23T03:00:00:Z","depth":"0","parameterNumber":3,"parameterNumberName":"V-component_of_CURRENTS"},"data":[0,0,0,0,0,0,0,0,0,0,0,0,0,0,0,0,0,0,0,0,0,0,0,0,0,0,0,0,0,0,0,0,0,0,0,0,0,0,0,0,0,0,0,0,0,0,0,0,0,0,0,0,0,0,0,0,0,0,-0.0768,-0.0767,0,-0.0703,-0.0703,-0.0702,-0.0635,-0.0633,-0.0632,-0.063,-0.0452,-0.0449,-0.0446,0,0,0,0,0,0,0,0,0,0,0,0,0,-0.0777,-0.0778,-0.0768,-0.0767,-0.0766,-0.0703,-0.0703,-0.0702,-0.0635,-0.0633,-0.0631,-0.063,-0.0453,-0.045,-0.0445,0,0,0,0,0,0,0,0,0,0,0,0,0,-0.0755,-0.0779,-0.0769,-0.072,-0.0715,-0.0703,-0.0703,-0.0702,-0.0635,-0.0633,-0.0631,-0.0629,-0.0455,-0.045,-0.0445,-0.0459,0,0,-0.043,-0.0427,0,0,0,0,0,0,0,0,-0.0756,-0.0755,-0.0729,-0.0723,-0.0717,-0.0669,-0.064,-0.0613,-0.0636,-0.0672,-0.063,-0.0628,-0.0512,-0.0502,-0.0505,-0.045,-0.0443,-0.0429,-0.0426,-0.0424,-0.0423,0,0,0,0,0,0,0,-0.0758,-0.0757,-0.0749,-0.0727,-0.072,-0.0681,-0.0677,-0.0635,-0.0608,-0.0669,-0.0662,-0.0646,-0.0509,-0.0511,-0.05,-0.044,-0.0429,-0.0425,-0.0422,-0.042,-0.027,-0.0269,0,0,0,0,0,0,-0.076,-0.076,-0.0751,-0.0746,-0.0725,-0.0683,-0.0678,-0.0692,-0.0611,-0.0595,-0.0648,-0.0643,-0.052,-0.0506,-0.0493,-0.0446,-0.0424,-0.0419,-0.0416,-0.0271,-0.027,-0.0269,0,0,0,0,0,0,-0.0761,-0.0761,-0.0753,-0.0744,-0.0739,-0.0685,-0.0701,-0.0692,-0.0681,-0.0595,-0.0578,-0.0643,-0.0518,-0.05,-0.0431,-0.044,-0.0417,-0.0412,-0.0272,-0.0271,-0.027,-0.0388,0,0,0,0,0,0,-0.0762,-0.0763,-0.0776,-0.0746,-0.074,-0.0746,-0.0702,-0.0692,-0.0672,-0.0664,-0.0586,-0.0568,-0.0515,-0.0439,-0.0426,-0.0433,-0.0409,-0.0274,-0.0272,-0.027,-0.0385,-0.0391,-0.0396,0,0,0,0,0,-0.0763,-0.0768,-0.0779,-0.0776,-0.0761,-0.0747,-0.0742,-0.0697,-0.0674,-0.0679,-0.0606,-0.057,-0.0417,-0.0434,-0.0419,-0.0425,-0.0274,-0.0272,-0.027,-0.0383,-0.039,-0.0395,0,0,0,0,0,0,-0.0775,-0.0761,-0.0771,-0.0774,-0.0769,-0.0732,-0.0716,-0.0704,-0.0659,-0.0637,-0.0565,-0.0542,-0.048,-0.0432,-0.0452,-0.037,-0.0338,-0.0333,-0.0429,-0.0434,-0.0439,-0.0466,-0.0404,0,0,0,0,0,-0.0791,-0.0796,-0.0786,-0.0793,-0.0785,-0.0763,-0.075,-0.0731,-0.0683,-0.0662,-0.0609,-0.0533,-0.0465,-0.0433,-0.0366,-0.0337,-0.0271,-0.0324,-0.0329,-0.0334,-0.0342,-0.0272,-0.0273,-0.0262,-0.0262,-0.0262,0,0,-0.08,-0.079,-0.0795,-0.0796,-0.0781,-0.0781,-0.075,-0.073,-0.0722,-0.0647,-0.0608,-0.0548,-0.0456,-0.0409,-0.0379,-0.037,-0.0291,-0.0331,-0.0337,-0.0341,-0.027,-0.0272,-0.0273,-0.0261,-0.0261,-0.0261,0,0,-0.0808,-0.0811,-0.0819,-0.0818,-0.0799,-0.0785,-0.0784,-0.076,-0.0735,-0.0704,-0.0633,-0.0584,-0.0495,-0.0442,-0.0398,-0.0392,-0.0315,-0.0365,-0.0427,-0.0361,-0.0362,-0.0363,-0.0247,-0.0236,-0.0378,-0.0378,-0.0378,0,-0.0825,-0.0841,-0.0819,-0.0824,-0.0823,-0.0791,-0.0807,-0.0778,-0.0736,-0.0724,-0.0692,-0.0585,-0.051,-0.046,-0.045,-0.0409,-0.034,-0.0422,-0.0372,-0.0371,-0.037,-0.0251,-0.0238,-0.0384,-0.0383,-0.0382,-0.0382,0,-0.0845,-0.0859,-0.0853,-0.0861,-0.0859,-0.0861,-0.0829,-0.0814,-0.0783,-0.0768,-0.072,-0.0639,-0.058,-0.055,-0.0494,-0.0456,-0.0396,-0.0385,-0.0372,-0.0379,-0.0251,-0.0235,-0.0391,-0.0389,-0.0388,-0.0386,0,0,-0.0892,-0.0878,-0.0882,-0.0908,-0.0885,-0.0897,-0.0861,-0.0852,-0.0842,-0.0805,-0.0796,-0.0704,-0.0686,-0.0633,-0.0575,-0.0527,-0.0441,-0.0463,-0.0456,-0.0372,-0.0253,-0.0154,-0.0125,-0.0431,-0.043,-0.0429,-0.0157,0,-0.093,-0.0967,-0.0936,-0.0977,-0.1002,-0.0959,-0.0944,-0.0923,-0.088,-0.0853,-0.079,-0.0747,-0.0707,-0.0683,-0.0633,-0.0484,-0.041,-0.0513,-0.0236,-0.0226,-0.016,-0.0109,-0.008,0.0169,-0.0141,-0.0138,-0.0136,0,-0.0968,-0.0995,-0.1045,-0.1066,-0.1071,-0.1079,-0.1069,-0.105,-0.0982,-0.0948,-0.091,-0.0841,-0.0759,-0.0723,-0.051,-0.0578,-0.0422,-0.0313,-0.03,-0.0161,-0.0099,0.0124,0.021,0.038,-0.0111,-0.0113,-0.0115,0,-0.1046,-0.1072,-0.1124,-0.1134,-0.1141,-0.1146,-0.1143,-0.1092,-0.1083,-0.1006,-0.0985,-0.0887,-0.0817,-0.0656,-0.0419,-0.0457,-0.0157,-0.0175,0.0066,0.0077,0.0182,0.0199,0.0438,-0.0013,-0.0014,-0.0014,-0.0015,0,-0.1104,-0.1144,-0.1169,-0.1204,-0.1272,-0.1237,-0.127,-0.1235,-0.1182,-0.1171,-0.1054,-0.1,-0.0799,-0.0605,-0.041,-0.01,-0.0136,0.0081,0.015,0.0149,0.0159,0.0375,0.0423,-0.0004,-0.0006,-0.0008,-0.001,0,-0.1167,-0.1176,-0.1252,-0.1293,-0.1308,-0.1361,-0.1371,-0.1378,-0.1309,-0.1276,-0.1251,-0.1064,-0.0791,-0.0543,-0.0223,-0.0064,0.0337,0.0331,0.0345,0.0409,0.0749,0.0788,0.1114,0.1227,0.0627,0.0631,0.0634,0,-0.12,-0.1243,-0.1342,-0.1394,-0.1411,-0.1471,-0.1496,-0.1457,-0.1446,-0.1305,-0.1284,-0.1017,-0.0796,-0.0275,0.0056,0.0454,0.0558,0.071,0.0626,0.0801,0.0896,0.091,0.098,0.0746,0.0751,0.0754,0.0756,0,-0.1259,-0.1295,-0.1359,-0.1482,-0.1538,-0.1599,-0.1619,-0.1626,-0.1543,-0.1457,-0.1252,-0.1051,-0.0561,-0.0098,0.04,0.0618,0.0827,0.079,0.0958,0.1007,0.1053,0.1183,0.0566,0.0786,0.0783,0.0781,0.0779,0.0778,-0.1288,-0.1358,-0.1438,-0.1544,-0.1618,-0.1656,-0.1657,-0.1612,-0.1538,-0.1287,-0.1187,-0.0762,-0.0239,0.0468,0.071,0.1184,0.1114,0.1307,0.1349,0.1356,0.143,0.0905,0.1194,0.1193,0.1193,0.1192,0.1192,0,-0.1291,-0.1361,-0.1481,-0.1577,-0.1641,-0.1675,-0.1673,-0.1584,-0.1413,-0.1118,-0.0844,-0.0188,0.0371,0.0861,0.1457,0.1713,0.1728,0.1835,0.1839,0.1889,0.1431,0.1398,0.176,0.1759,0.1759,0.1759,0.1759,0.1759,-0.1284,-0.1376,-0.1444,-0.1539,-0.1601,-0.1602,-0.1569,-0.139,-0.1148,-0.0574,-0.0107,0.0226,0.0767,0.1576,0.2112,0.2171,0.2358,0.2351,0.2467,0.2108,0.206,0.2013,0.1996,0.2477,0.2478,0.2893,0.2897,0.29]}],[{"header":{"parameterUnit":"m.s-1","parameterCategory":2,"la1":30.2991,"la2":30.254,"lo1":-89.0895,"lo2":-89.0444,"dy":0.0017,"dx":0.0017,"nx":28,"ny":28,"refTime":"2025-07-23T03:00:00:Z","depth":"2","parameterNumber":2,"parameterNumberName":"U-component_of_CURRENTS"},"data":[0,0,0,0,0,0,0,0,0,0,0,0,0,0,0,0,0,0,0,0,0,0,0,0,0,0,0,0,0,0,0,0,0,0,0,0,0,0,0,0,0,0,0,0,0,0,0,0,0,0,0,0,0,0,0,0,0,0,-0.2243,-0.2244,0,-0.2391,-0.2392,-0.2394,-0.2494,-0.2495,-0.2496,-0.2496,-0.2581,-0.2582,-0.2584,0,0,0,0,0,0,0,0,0,0,0,0,0,-0.2285,-0.2282,-0.2243,-0.2244,-0.2246,-0.239,-0.2392,-0.2394,-0.2494,-0.2495,-0.2496,-0.2497,-0.258,-0.2582,-0.2584,0,0,0,0,0,0,0,0,0,0,0,0,0,-0.2332,-0.2281,-0.2242,-0.2314,-0.2322,-0.239,-0.2392,-0.2395,-0.2494,-0.2495,-0.2496,-0.2497,-0.258,-0.2582,-0.2584,-0.2576,0,0,-0.2591,-0.2592,0,0,0,0,0,0,0,0,-0.2329,-0.233,-0.2301,-0.2309,-0.2318,-0.2425,-0.2439,-0.2452,-0.2493,-0.2428,-0.2496,-0.2498,-0.2522,-0.253,-0.2555,-0.258,-0.2584,-0.2592,-0.2593,-0.2594,-0.2595,0,0,0,0,0,0,0,-0.2325,-0.2326,-0.2301,-0.2303,-0.2313,-0.2421,-0.2426,-0.2443,-0.2465,-0.2434,-0.2441,-0.2458,-0.2527,-0.2553,-0.2558,-0.2585,-0.2592,-0.2594,-0.2595,-0.2596,-0.2626,-0.2625,0,0,0,0,0,0,-0.2293,-0.232,-0.2296,-0.2305,-0.2327,-0.2418,-0.2424,-0.2389,-0.2467,-0.2481,-0.2457,-0.2462,-0.2548,-0.2555,-0.2561,-0.259,-0.2594,-0.2596,-0.2598,-0.2626,-0.2626,-0.2625,0,0,0,0,0,0,-0.2292,-0.2287,-0.229,-0.2321,-0.2329,-0.2414,-0.2376,-0.2392,-0.2423,-0.2486,-0.2498,-0.2472,-0.2549,-0.2558,-0.2614,-0.2593,-0.2597,-0.2599,-0.2627,-0.2626,-0.2625,-0.2626,0,0,0,0,0,0,-0.2292,-0.2285,-0.2289,-0.2316,-0.2326,-0.2322,-0.2375,-0.2394,-0.2431,-0.244,-0.2502,-0.2511,-0.2551,-0.2611,-0.2616,-0.2596,-0.2601,-0.2628,-0.2627,-0.2626,-0.2627,-0.2625,-0.2624,0,0,0,0,0,-0.2292,-0.2315,-0.2286,-0.2287,-0.2312,-0.2321,-0.2335,-0.2404,-0.2431,-0.2437,-0.251,-0.251,-0.2605,-0.2614,-0.262,-0.26,-0.2628,-0.2627,-0.2626,-0.2627,-0.2626,-0.2624,0,0,0,0,0,0,-0.2352,-0.2327,-0.2298,-0.2311,-0.2296,-0.2338,-0.2401,-0.2395,-0.2456,-0.2509,-0.2528,-0.2543,-0.2563,-0.2586,-0.2593,-0.2601,-0.2604,-0.2604,-0.2603,-0.2602,-0.26,-0.2603,-0.2603,0,0,0,0,0,-0.235,-0.235,-0.2316,-0.2324,-0.2329,-0.2346,-0.2375,-0.2405,-0.245,-0.248,-0.2506,-0.2549,-0.2558,-0.2589,-0.2604,-0.2635,-0.2673,-0.2614,-0.2613,-0.2612,-0.2616,-0.2706,-0.2715,-0.262,-0.262,-0.2621,0,0,-0.2367,-0.2366,-0.236,-0.2337,-0.2359,-0.2354,-0.2368,-0.2428,-0.2425,-0.2479,-0.2522,-0.2539,-0.2559,-0.259,-0.2599,-0.2617,-0.265,-0.261,-0.261,-0.2614,-0.2706,-0.2716,-0.2725,-0.262,-0.262,-0.262,0,0,-0.2409,-0.2401,-0.2405,-0.2401,-0.2429,-0.2424,-0.2419,-0.2441,-0.2463,-0.2473,-0.2516,-0.2543,-0.2544,-0.2586,-0.2592,-0.2589,-0.2623,-0.2568,-0.2592,-0.268,-0.269,-0.2699,-0.2732,-0.2744,-0.2591,-0.2591,-0.2591,0,-0.2427,-0.2419,-0.2412,-0.2425,-0.2451,-0.2431,-0.2444,-0.2441,-0.2475,-0.251,-0.2483,-0.2536,-0.2533,-0.2597,-0.2581,-0.2584,-0.2635,-0.2602,-0.2683,-0.2693,-0.2702,-0.2734,-0.2748,-0.2591,-0.2591,-0.2591,-0.2591,0,-0.2446,-0.2462,-0.2488,-0.2461,-0.2476,-0.2511,-0.2484,-0.2517,-0.2509,-0.2492,-0.2532,-0.255,-0.2593,-0.2562,-0.2557,-0.2622,-0.2633,-0.2656,-0.2696,-0.2712,-0.2743,-0.2758,-0.2591,-0.2591,-0.2591,-0.2591,0,0,-0.2402,-0.2477,-0.2473,-0.25,-0.2522,-0.2524,-0.2561,-0.2565,-0.262,-0.2581,-0.2652,-0.2594,-0.2615,-0.2624,-0.2643,-0.2691,-0.2751,-0.2698,-0.2703,-0.2744,-0.2928,-0.2651,-0.264,-0.2816,-0.2819,-0.2822,-0.2913,0,-0.2404,-0.2437,-0.2482,-0.2513,-0.2537,-0.2592,-0.2606,-0.2632,-0.2653,-0.2715,-0.271,-0.2739,-0.2632,-0.2687,-0.2709,-0.2742,-0.2793,-0.2721,-0.2893,-0.2896,-0.2662,-0.2649,-0.2466,-0.2508,-0.2927,-0.293,-0.2931,0,-0.2385,-0.2423,-0.2459,-0.2573,-0.2588,-0.2604,-0.2716,-0.273,-0.2815,-0.2853,-0.2907,-0.2906,-0.293,-0.2868,-0.2906,-0.2876,-0.2894,-0.2906,-0.2913,-0.2666,-0.2645,-0.2563,-0.2519,-0.2955,-0.2954,-0.2952,-0.295,0,-0.2336,-0.2415,-0.2451,-0.2477,-0.2568,-0.2642,-0.2683,-0.2775,-0.2809,-0.2965,-0.302,-0.3067,-0.3082,-0.3114,-0.2986,-0.3015,-0.303,-0.3099,-0.2878,-0.286,-0.2735,-0.2697,-0.3186,-0.3186,-0.3186,-0.3185,-0.3185,0,-0.2322,-0.2358,-0.2437,-0.2458,-0.2529,-0.2614,-0.2716,-0.2804,-0.2922,-0.295,-0.3064,-0.3094,-0.3145,-0.3116,-0.3072,-0.2917,-0.3087,-0.286,-0.2862,-0.2718,-0.2679,-0.3098,-0.3087,-0.3189,-0.3188,-0.3187,-0.3187,0,-0.2268,-0.2312,-0.2377,-0.2481,-0.2513,-0.2558,-0.2685,-0.2742,-0.288,-0.2961,-0.3,-0.3106,-0.3051,-0.3023,-0.3062,-0.2966,-0.291,-0.2838,-0.2598,-0.2564,-0.2698,-0.2685,-0.2699,-0.269,-0.2682,-0.2676,-0.2671,0,-0.2241,-0.2264,-0.2356,-0.2374,-0.243,-0.2511,-0.2551,-0.2694,-0.2748,-0.2898,-0.2907,-0.2938,-0.2849,-0.2743,-0.2643,-0.2538,-0.2676,-0.2341,-0.234,-0.2645,-0.2649,-0.2648,-0.2646,-0.2206,-0.2197,-0.219,-0.2185,0,-0.2202,-0.2234,-0.2268,-0.2295,-0.234,-0.2393,-0.2471,-0.2494,-0.2631,-0.2673,-0.2671,-0.2623,-0.2536,-0.231,-0.2161,-0.2093,-0.2333,-0.2186,-0.2634,-0.2289,-0.2169,-0.2174,-0.2193,-0.2121,-0.2127,-0.2132,-0.2135,-0.2138,-0.2157,-0.2159,-0.2178,-0.2196,-0.2235,-0.2236,-0.2217,-0.2285,-0.228,-0.228,-0.2343,-0.2206,-0.22,-0.184,-0.1713,-0.1663,-0.1849,-0.1845,-0.1875,-0.1912,-0.1769,-0.1634,-0.146,-0.1463,-0.1465,-0.1467,-0.1468,0,-0.2053,-0.2052,-0.2069,-0.2069,-0.2031,-0.21,-0.2108,-0.203,-0.194,-0.1947,-0.1874,-0.1628,-0.1456,-0.1451,-0.1267,-0.1218,-0.1309,-0.1189,-0.1349,-0.1408,-0.1462,-0.1306,-0.0871,-0.0869,-0.0868,-0.0867,0,0,-0.199,-0.1937,-0.1931,-0.1831,-0.1827,-0.1696,-0.1647,-0.1556,-0.1506,-0.1346,-0.127,-0.1353,-0.1364,-0.1122,-0.106,-0.0929,-0.1165,-0.0879,-0.1352,-0.1595,-0.1648,-0.1821,-0.164,0,0,0,0,0]},{"header":{"parameterUnit":"m.s-1","parameterCategory":2,"la1":30.2991,"la2":30.254,"lo1":-89.0895,"lo2":-89.0444,"dy":0.0017,"dx":0.0017,"nx":28,"ny":28,"refTime":"2025-07-23T03:00:00:Z","depth":"2","parameterNumber":3,"parameterNumberName":"V-component_of_CURRENTS"},"data":[0,0,0,0,0,0,0,0,0,0,0,0,0,0,0,0,0,0,0,0,0,0,0,0,0,0,0,0,0,0,0,0,0,0,0,0,0,0,0,0,0,0,0,0,0,0,0,0,0,0,0,0,0,0,0,0,0,0,-0.0158,-0.0157,0,0.0028,0.0031,0.0033,0.0182,0.0183,0.0184,0.0185,0.0597,0.0607,0.0617,0,0,0,0,0,0,0,0,0,0,0,0,0,-0.0311,-0.0309,-0.0158,-0.0157,-0.0155,0.0027,0.0031,0.0034,0.0182,0.0183,0.0184,0.0185,0.0593,0.0605,0.0618,0,0,0,0,0,0,0,0,0,0,0,0,0,-0.0189,-0.0308,-0.0159,-0.0066,-0.0056,0.0027,0.0031,0.0035,0.0182,0.0183,0.0184,0.0185,0.0589,0.0604,0.062,0.0694,0,0,0.0667,0.0674,0,0,0,0,0,0,0,0,-0.0196,-0.0182,-0.0081,-0.0072,-0.0061,0.0075,0.0128,0.0264,0.0182,0.0101,0.0185,0.0186,0.0437,0.0465,0.0507,0.0713,0.0731,0.0668,0.0678,0.0684,0.0689,0,0,0,0,0,0,0,-0.0205,-0.0189,-0.0076,-0.008,-0.0068,-0.0009,0.001,0.0154,0.0272,0.0108,0.0117,0.0124,0.0445,0.0491,0.0518,0.0737,0.0668,0.0682,0.0691,0.0697,0.1084,0.1085,0,0,0,0,0,0,-0.025,-0.0198,-0.0082,-0.0071,-0.0137,-0.0008,0.0014,0.0038,0.0265,0.0297,0.0122,0.013,0.0464,0.05,0.0533,0.0619,0.0684,0.0699,0.0707,0.1083,0.1084,0.1085,0,0,0,0,0,0,-0.0254,-0.0241,-0.0089,-0.0138,-0.0116,-0.0008,0.0019,0.004,0.0087,0.0272,0.031,0.0144,0.0467,0.0512,0.0687,0.0637,0.0706,0.072,0.1082,0.1083,0.1085,0.0803,0,0,0,0,0,0,-0.0258,-0.0243,-0.0235,-0.0141,-0.0115,-0.0053,0.0017,0.0043,0.0085,0.0096,0.0304,0.0343,0.0471,0.0663,0.0702,0.066,0.0732,0.108,0.1082,0.1084,0.0811,0.0794,0.078,0,0,0,0,0,-0.0264,-0.0268,-0.0235,-0.0222,-0.011,-0.0055,-0.0035,0.0051,0.0084,0.0099,0.0262,0.0337,0.0701,0.0677,0.0723,0.0683,0.1079,0.1082,0.1084,0.0818,0.0798,0.0781,0,0,0,0,0,0,-0.0329,-0.0251,-0.0214,-0.0191,-0.0135,-0.0033,-0.0019,0.0036,0.0171,0.0196,0.0372,0.0424,0.0539,0.068,0.0648,0.0808,0.0894,0.0905,0.0676,0.0659,0.0644,0.0601,0.0745,0,0,0,0,0,-0.0345,-0.0327,-0.0245,-0.0232,-0.0211,-0.0118,-0.0085,-0.0026,0.0093,0.015,0.0296,0.0461,0.0584,0.0675,0.0814,0.0927,0.1011,0.0932,0.0916,0.0901,0.0903,0.0995,0.0985,0.1092,0.1092,0.1092,0,0,-0.0369,-0.0327,-0.0315,-0.0246,-0.0195,-0.0164,-0.0093,-0.0053,-0.0017,0.0179,0.0291,0.0412,0.0603,0.0707,0.0771,0.0821,0.0909,0.0904,0.0889,0.09,0.0996,0.0985,0.0975,0.1094,0.1094,0.1093,0,0,-0.0416,-0.0373,-0.0369,-0.0329,-0.0268,-0.021,-0.0209,-0.0103,-0.0047,0.0068,0.0196,0.0295,0.0522,0.062,0.0703,0.0702,0.0811,0.0746,0.0647,0.0733,0.0723,0.0716,0.0752,0.075,0.0752,0.0751,0.0751,0,-0.0446,-0.0424,-0.0364,-0.035,-0.0332,-0.0242,-0.0235,-0.0167,-0.0013,0.0031,0.0079,0.0337,0.0467,0.0574,0.0561,0.0654,0.0724,0.0678,0.0703,0.0699,0.0696,0.0736,0.0737,0.0738,0.0739,0.0741,0.0742,0,-0.0478,-0.0462,-0.0468,-0.0417,-0.0389,-0.0375,-0.029,-0.024,-0.0174,-0.0097,0.001,0.0179,0.033,0.0358,0.0461,0.0502,0.0559,0.0645,0.072,0.0666,0.0714,0.072,0.0719,0.0724,0.0728,0.0731,0,0,-0.0533,-0.0496,-0.0494,-0.0493,-0.0425,-0.0407,-0.0368,-0.0304,-0.0286,-0.0159,-0.0125,0.0031,0.0101,0.0202,0.0317,0.0385,0.0374,0.0494,0.0505,0.0475,0.0536,0.055,0.056,0.0467,0.0468,0.0469,0.0553,0,-0.0574,-0.0583,-0.0544,-0.0554,-0.0557,-0.0486,-0.0462,-0.0393,-0.0324,-0.0262,-0.0136,-0.0046,0.0051,0.0098,0.0172,0.0349,0.0391,0.0342,0.0644,0.0652,0.0627,0.0569,0.0544,0.0618,0.056,0.0561,0.0562,0,-0.0604,-0.0612,-0.0635,-0.0633,-0.0628,-0.0621,-0.0591,-0.055,-0.0452,-0.0401,-0.0309,-0.0192,-0.0078,0.0001,0.0233,0.0205,0.0337,0.0455,0.0464,0.0589,0.0681,0.0685,0.0633,0.0575,0.0574,0.0573,0.0572,0,-0.0673,-0.0674,-0.0704,-0.0699,-0.0676,-0.0684,-0.0666,-0.0596,-0.0567,-0.0486,-0.0463,-0.0301,-0.0215,-0.0022,0.0218,0.0233,0.0464,0.0527,0.0652,0.0653,0.0751,0.076,0.0659,0.0659,0.0658,0.0658,0.0658,0,-0.0725,-0.0751,-0.0745,-0.0762,-0.0811,-0.0762,-0.079,-0.0751,-0.069,-0.0659,-0.0538,-0.0471,-0.0211,-0.0035,0.0174,0.0427,0.0438,0.0615,0.068,0.065,0.0648,0.0736,0.0744,0.0661,0.0661,0.066,0.0659,0,-0.0791,-0.078,-0.0826,-0.0835,-0.0845,-0.0877,-0.0874,-0.0878,-0.0821,-0.0782,-0.0756,-0.0583,-0.0354,-0.0104,0.0209,0.0368,0.0612,0.0696,0.061,0.0663,0.0741,0.0735,0.0823,0.0825,0.0826,0.0827,0.0827,0,-0.0823,-0.0854,-0.0895,-0.0934,-0.0946,-0.0983,-0.1,-0.095,-0.0938,-0.0825,-0.08,-0.0605,-0.0424,-0.0008,0.0299,0.0623,0.0652,0.076,0.0782,0.0705,0.0761,0.0752,0.0744,0.0783,0.0783,0.0783,0.0784,0,-0.0904,-0.0917,-0.0953,-0.1034,-0.1075,-0.1112,-0.1125,-0.1129,-0.1043,-0.0966,-0.0813,-0.066,-0.03,0.0056,0.042,0.0615,0.0704,0.0775,0.0754,0.0739,0.0674,0.0725,0.0718,0.0786,0.0786,0.0786,0.0786,0.0786,-0.0964,-0.1014,-0.1062,-0.1135,-0.1182,-0.1217,-0.1228,-0.119,-0.1123,-0.096,-0.0809,-0.0529,-0.0253,0.0298,0.0546,0.0758,0.0773,0.0848,0.0845,0.0842,0.0817,0.0757,0.0877,0.0877,0.0877,0.0878,0.0878,0,-0.1033,-0.1084,-0.1161,-0.1234,-0.1287,-0.1288,-0.1285,-0.1235,-0.1122,-0.0925,-0.0707,-0.0345,0.0034,0.0313,0.0659,0.0857,0.0844,0.0878,0.0832,0.0829,0.0827,0.0798,0.0856,0.0856,0.0856,0.0856,0,0,-0.1074,-0.1157,-0.1192,-0.1301,-0.1344,-0.1359,-0.1339,-0.1217,-0.1061,-0.0832,-0.0593,-0.0275,0.006,0.0304,0.0542,0.0708,0.071,0.0715,0.0716,0.063,0.0625,0.0798,0.075,0,0,0,0,0]}],[{"header":{"parameterUnit":"m.s-1","parameterCategory":2,"la1":30.2991,"la2":30.254,"lo1":-89.0895,"lo2":-89.0444,"dy":0.0017,"dx":0.0017,"nx":28,"ny":28,"refTime":"2025-07-23T03:00:00:Z","depth":"4","parameterNumber":2,"parameterNumberName":"U-component_of_CURRENTS"},"data":[0,0,0,0,0,0,0,0,0,0,0,0,0,0,0,0,0,0,0,0,0,0,0,0,0,0,0,0,0,0,0,0,0,0,0,0,0,0,0,0,0,0,0,0,0,0,0,0,0,0,0,0,0,0,0,0,0,0,-0.1404,-0.1404,0,-0.1446,-0.1446,-0.1446,-0.1465,-0.1465,-0.1465,-0.1465,-0.1501,-0.1502,-0.1503,0,0,0,0,0,0,0,0,0,0,0,0,0,-0.1418,-0.1417,-0.1404,-0.1404,-0.1405,-0.1445,-0.1446,-0.1447,-0.1465,-0.1465,-0.1465,-0.1465,-0.1501,-0.1502,-0.1503,0,0,0,0,0,0,0,0,0,0,0,0,0,-0.143,-0.1416,-0.1403,-0.142,-0.1421,-0.1445,-0.1446,-0.1447,-0.1465,-0.1465,-0.1465,-0.1465,-0.15,-0.1502,-0.1503,-0.1511,0,0,-0.1508,-0.1508,0,0,0,0,0,0,0,0,-0.1429,-0.1429,-0.1417,-0.1418,-0.1421,-0.1451,-0.1464,-0.1468,-0.1465,-0.1448,-0.1465,-0.1465,-0.1484,-0.1487,-0.1494,-0.1513,-0.1515,-0.1508,-0.1508,-0.1509,-0.1509,0,0,0,0,0,0,0,-0.1428,-0.1428,-0.1419,-0.1417,-0.142,-0.1451,-0.1452,-0.1465,-0.1465,-0.1449,-0.1451,-0.1457,-0.1485,-0.1492,-0.1495,-0.1515,-0.1508,-0.1509,-0.151,-0.151,-0.1552,-0.1552,0,0,0,0,0,0,-0.142,-0.1426,-0.1418,-0.1421,-0.1426,-0.1451,-0.1452,-0.1441,-0.1465,-0.1469,-0.1457,-0.1458,-0.149,-0.1493,-0.1496,-0.1558,-0.1509,-0.151,-0.1511,-0.1552,-0.1552,-0.1552,0,0,0,0,0,0,-0.142,-0.1418,-0.1416,-0.1427,-0.1429,-0.145,-0.1438,-0.1441,-0.1475,-0.1471,-0.1474,-0.1489,-0.149,-0.1494,-0.1515,-0.1557,-0.1511,-0.1512,-0.1551,-0.1552,-0.1552,-0.1649,0,0,0,0,0,0,-0.142,-0.1417,-0.1427,-0.1425,-0.1428,-0.1443,-0.1438,-0.1442,-0.1477,-0.1479,-0.1499,-0.1501,-0.149,-0.1513,-0.1516,-0.1559,-0.1513,-0.1551,-0.1552,-0.1552,-0.1646,-0.1653,-0.1659,0,0,0,0,0,-0.142,-0.1434,-0.1426,-0.1427,-0.1432,-0.1444,-0.1449,-0.1464,-0.1479,-0.1495,-0.1501,-0.1502,-0.1518,-0.1514,-0.1518,-0.1562,-0.1551,-0.1551,-0.1552,-0.1643,-0.1651,-0.1659,0,0,0,0,0,0,-0.1455,-0.1437,-0.1429,-0.1439,-0.1444,-0.1447,-0.1475,-0.1484,-0.1504,-0.1514,-0.151,-0.1512,-0.1545,-0.1531,-0.1527,-0.1569,-0.1533,-0.1535,-0.16,-0.1609,-0.1615,-0.1624,-0.1515,0,0,0,0,0,-0.1462,-0.1462,-0.1451,-0.1462,-0.1467,-0.1476,-0.1492,-0.1498,-0.1508,-0.1519,-0.1529,-0.1535,-0.1546,-0.156,-0.1559,-0.1591,-0.1575,-0.1616,-0.1623,-0.1629,-0.1635,-0.1637,-0.1646,-0.1554,-0.1554,-0.1554,0,0,-0.1479,-0.1471,-0.1473,-0.147,-0.1479,-0.1494,-0.1487,-0.1514,-0.1539,-0.1519,-0.1564,-0.1563,-0.1557,-0.1585,-0.16,-0.1586,-0.1647,-0.163,-0.1636,-0.1638,-0.1639,-0.1648,-0.1656,-0.1555,-0.1555,-0.1555,0,0,-0.1508,-0.1506,-0.1512,-0.1518,-0.1529,-0.1533,-0.1546,-0.1557,-0.1577,-0.1608,-0.16,-0.1621,-0.164,-0.1644,-0.1649,-0.1692,-0.1679,-0.1693,-0.1748,-0.1751,-0.1759,-0.1766,-0.1765,-0.1771,-0.1702,-0.1702,-0.1702,0,-0.1531,-0.1532,-0.1522,-0.1534,-0.1553,-0.1554,-0.1578,-0.1596,-0.1615,-0.1639,-0.1632,-0.1671,-0.167,-0.1713,-0.1723,-0.1713,-0.1705,-0.1727,-0.1763,-0.1769,-0.1775,-0.1772,-0.1778,-0.1707,-0.1706,-0.1706,-0.1705,0,-0.1549,-0.1568,-0.1581,-0.1586,-0.1607,-0.163,-0.1643,-0.1674,-0.17,-0.1715,-0.1765,-0.1759,-0.1779,-0.1788,-0.1775,-0.1819,-0.1798,-0.1771,-0.1751,-0.179,-0.1784,-0.1788,-0.1714,-0.1712,-0.1711,-0.1709,0,0,-0.154,-0.1583,-0.1587,-0.1611,-0.1639,-0.1654,-0.1707,-0.1747,-0.1792,-0.1813,-0.1868,-0.1891,-0.1889,-0.1891,-0.1881,-0.1891,-0.1927,-0.1856,-0.1854,-0.187,-0.1935,-0.18,-0.1791,-0.1911,-0.1912,-0.1913,-0.1919,0,-0.1555,-0.1596,-0.1615,-0.1669,-0.1693,-0.1724,-0.1776,-0.1818,-0.1853,-0.1901,-0.1917,-0.1954,-0.1928,-0.1946,-0.1953,-0.1927,-0.1941,-0.1928,-0.188,-0.1879,-0.1766,-0.1792,-0.1917,-0.1922,-0.1923,-0.1923,-0.1924,0,-0.1549,-0.1585,-0.1643,-0.1719,-0.1735,-0.1774,-0.1857,-0.19,-0.1965,-0.1995,-0.2033,-0.2035,-0.2061,-0.2026,-0.2019,-0.2012,-0.1985,-0.1964,-0.1963,-0.1805,-0.175,-0.1868,-0.193,-0.193,-0.1929,-0.1929,-0.1929,0,-0.1531,-0.1599,-0.1655,-0.1677,-0.1761,-0.1811,-0.1859,-0.1934,-0.1979,-0.205,-0.2081,-0.211,-0.2121,-0.2099,-0.2049,-0.2041,-0.2029,-0.2005,-0.1866,-0.1857,-0.1937,-0.1929,-0.2009,-0.2009,-0.2009,-0.2009,-0.2009,0,-0.1515,-0.1562,-0.1657,-0.1684,-0.176,-0.1822,-0.1903,-0.1958,-0.2036,-0.2074,-0.2121,-0.2133,-0.2139,-0.2124,-0.2078,-0.1972,-0.2048,-0.1877,-0.1847,-0.1977,-0.1973,-0.1941,-0.1933,-0.2009,-0.2009,-0.2009,-0.2009,0,-0.1473,-0.1536,-0.1609,-0.1717,-0.1751,-0.1805,-0.191,-0.1956,-0.2044,-0.2091,-0.2114,-0.216,-0.2125,-0.2114,-0.2077,-0.1988,-0.1918,-0.1869,-0.2018,-0.1995,-0.1743,-0.174,-0.1711,-0.1706,-0.1702,-0.1699,-0.1696,0,-0.1452,-0.149,-0.1615,-0.1653,-0.1704,-0.1788,-0.1837,-0.1943,-0.1978,-0.2075,-0.2075,-0.2099,-0.21,-0.1935,-0.1944,-0.1857,-0.1826,-0.1792,-0.1759,-0.1737,-0.1712,-0.1715,-0.1718,-0.1689,-0.1688,-0.1687,-0.1686,0,-0.1418,-0.148,-0.1532,-0.1603,-0.1665,-0.172,-0.1792,-0.1807,-0.1909,-0.2013,-0.1966,-0.1928,-0.1891,-0.1832,-0.1783,-0.1721,-0.1811,-0.1749,-0.1757,-0.1726,-0.1711,-0.1691,-0.1698,-0.1672,-0.1674,-0.1675,-0.1676,0,-0.1397,-0.1417,-0.1486,-0.1526,-0.1603,-0.1611,-0.1665,-0.168,-0.1723,-0.1828,-0.1806,-0.1818,-0.1872,-0.1761,-0.1712,-0.1641,-0.1604,-0.154,-0.1558,-0.1573,-0.152,-0.148,-0.1345,0,0,0,0,0,-0.1362,-0.1356,-0.1395,-0.1429,-0.1497,-0.1519,-0.1612,-0.1663,-0.1766,-0.1685,-0.1738,-0.1687,-0.1604,-0.1615,-0.1505,-0.1645,-0.1616,-0.1512,-0.1555,-0.1594,-0.1611,-0.1557,0,0,0,0,0,0,-0.1335,-0.137,-0.1357,-0.1326,-0.1321,-0.1365,-0.1409,-0.1476,-0.1435,-0.1544,-0.15,-0.158,-0.1519,-0.163,-0.1467,-0.1469,-0.1459,-0.1534,-0.1529,-0.1585,-0.16,-0.1613,-0.1564,0,0,0,0,0]},{"header":{"parameterUnit":"m.s-1","parameterCategory":2,"la1":30.2991,"la2":30.254,"lo1":-89.0895,"lo2":-89.0444,"dy":0.0017,"dx":0.0017,"nx":28,"ny":28,"refTime":"2025-07-23T03:00:00:Z","depth":"4","parameterNumber":3,"parameterNumberName":"V-component_of_CURRENTS"},"data":[0,0,0,0,0,0,0,0,0,0,0,0,0,0,0,0,0,0,0,0,0,0,0,0,0,0,0,0,0,0,0,0,0,0,0,0,0,0,0,0,0,0,0,0,0,0,0,0,0,0,0,0,0,0,0,0,0,0,-0.0199,-0.0199,0,-0.0162,-0.0162,-0.0161,-0.0136,-0.0136,-0.0136,-0.0136,-0.0071,-0.0069,-0.0068,0,0,0,0,0,0,0,0,0,0,0,0,0,-0.022,-0.022,-0.0199,-0.0199,-0.0198,-0.0162,-0.0162,-0.0161,-0.0136,-0.0136,-0.0136,-0.0136,-0.0071,-0.0069,-0.0067,0,0,0,0,0,0,0,0,0,0,0,0,0,-0.0199,-0.022,-0.0199,-0.0183,-0.0181,-0.0163,-0.0162,-0.0161,-0.0136,-0.0136,-0.0136,-0.0136,-0.0072,-0.007,-0.0067,-0.0052,0,0,-0.0059,-0.0058,0,0,0,0,0,0,0,0,-0.02,-0.0198,-0.0186,-0.0184,-0.0182,-0.0155,-0.0145,-0.0124,-0.0136,-0.0152,-0.0136,-0.0136,-0.0097,-0.0093,-0.0084,-0.0049,-0.0047,-0.0059,-0.0058,-0.0056,-0.0056,0,0,0,0,0,0,0,-0.0202,-0.0199,-0.0183,-0.0185,-0.0183,-0.0168,-0.0165,-0.0141,-0.0124,-0.015,-0.0149,-0.0147,-0.0096,-0.0087,-0.0082,-0.0046,-0.0059,-0.0057,-0.0055,-0.0054,-0.0004,-0.0004,0,0,0,0,0,0,-0.0211,-0.0201,-0.0184,-0.0182,-0.0193,-0.0168,-0.0165,-0.0163,-0.0124,-0.0119,-0.0147,-0.0146,-0.0091,-0.0086,-0.008,-0.0047,-0.0056,-0.0054,-0.0053,-0.0004,-0.0004,-0.0004,0,0,0,0,0,0,-0.0211,-0.021,-0.0186,-0.0192,-0.0188,-0.0168,-0.0166,-0.0162,-0.0152,-0.0123,-0.0117,-0.0142,-0.0091,-0.0084,-0.0065,-0.0045,-0.0053,-0.0051,-0.0004,-0.0004,-0.0004,0.0011,0,0,0,0,0,0,-0.0212,-0.021,-0.021,-0.0192,-0.0188,-0.0181,-0.0166,-0.0161,-0.0152,-0.015,-0.0116,-0.011,-0.009,-0.0069,-0.0062,-0.0041,-0.0049,-0.0003,-0.0004,-0.0004,0.0011,0.0011,0.0012,0,0,0,0,0,-0.0213,-0.0219,-0.0211,-0.0208,-0.0189,-0.0181,-0.0177,-0.0162,-0.0152,-0.0151,-0.013,-0.0111,-0.0066,-0.0067,-0.0059,-0.0037,-0.0003,-0.0004,-0.0004,0.0011,0.0011,0.0012,0,0,0,0,0,0,-0.0236,-0.0217,-0.0207,-0.0209,-0.0197,-0.0178,-0.0179,-0.0163,-0.0145,-0.0145,-0.0111,-0.0104,-0.0081,-0.0069,-0.007,-0.0028,-0.0032,-0.0031,-0.0024,-0.0023,-0.0022,-0.0035,-0.0046,0,0,0,0,0,-0.0239,-0.0236,-0.0218,-0.0221,-0.0218,-0.0196,-0.019,-0.0181,-0.0163,-0.0155,-0.0128,-0.0104,-0.0077,-0.0059,-0.0042,-0.0015,0.0008,0.0001,0.0002,0.0002,-0.0005,0.0057,0.0063,-0.0006,-0.0006,-0.0006,0,0,-0.0253,-0.024,-0.024,-0.0225,-0.0217,-0.0213,-0.0193,-0.0192,-0.0179,-0.0151,-0.0129,-0.0104,-0.0073,-0.0045,-0.0032,-0.0029,0.0032,0.0002,0.0002,-0.0006,0.0057,0.0064,0.007,-0.0006,-0.0006,-0.0006,0,0,-0.0278,-0.0265,-0.0271,-0.026,-0.0248,-0.0233,-0.0233,-0.0212,-0.0194,-0.0172,-0.0145,-0.0109,-0.0076,-0.0038,-0.0016,-0.0004,0.0027,-0.0003,0.0002,0.0063,0.007,0.0076,0.0111,0.0121,0.0005,0.0005,0.0005,0,-0.0296,-0.0295,-0.0273,-0.0273,-0.027,-0.0243,-0.025,-0.0223,-0.0196,-0.0177,-0.0171,-0.0103,-0.0068,-0.0015,-0.0009,0.0002,0.0026,0.0004,0.0067,0.0073,0.0079,0.0114,0.0124,0.0006,0.0006,0.0006,0.0006,0,-0.0321,-0.0319,-0.0326,-0.0312,-0.0303,-0.0309,-0.0275,-0.0256,-0.023,-0.0198,-0.0151,-0.0102,-0.0062,-0.0035,-0.0014,0.0047,0.0045,0.0058,0.0071,0.0088,0.0122,0.0133,0.0007,0.0007,0.0006,0.0006,0,0,-0.0365,-0.0348,-0.035,-0.0352,-0.0326,-0.0328,-0.03,-0.0268,-0.0254,-0.02,-0.0171,-0.0095,-0.0068,-0.0043,-0.0001,0.0061,0.0137,0.0075,0.0078,0.0119,0.0254,0.0227,0.0236,0.0165,0.0167,0.0169,0.026,0,-0.0394,-0.0412,-0.0386,-0.04,-0.0409,-0.0368,-0.035,-0.0313,-0.0273,-0.0235,-0.0151,-0.0118,-0.0069,-0.0053,0.0023,0.0102,0.0164,0.0109,0.0222,0.0225,0.0208,0.0247,0.0175,0.0268,0.027,0.0272,0.0273,0,-0.0422,-0.0432,-0.0457,-0.0449,-0.0451,-0.0451,-0.0426,-0.0403,-0.0329,-0.0297,-0.0228,-0.0175,-0.0073,-0.0045,0.0122,0.0083,0.0163,0.023,0.0236,0.0211,0.0218,0.0247,0.0292,0.0291,0.0289,0.0288,0.0287,0,-0.0469,-0.0475,-0.0501,-0.05,-0.0489,-0.049,-0.048,-0.0427,-0.0411,-0.0338,-0.0322,-0.0198,-0.0145,-0.0013,0.0132,0.0129,0.0304,0.032,0.0372,0.037,0.036,0.0352,0.0433,0.0433,0.0432,0.0432,0.0432,0,-0.0499,-0.0522,-0.0532,-0.0547,-0.0584,-0.055,-0.0568,-0.0534,-0.0488,-0.0465,-0.0365,-0.0319,-0.0134,-0.0011,0.0122,0.0277,0.0304,0.0376,0.04,0.0361,0.0353,0.0367,0.0359,0.0436,0.0435,0.0434,0.0434,0,-0.0538,-0.0543,-0.0581,-0.0596,-0.0608,-0.0634,-0.0638,-0.0641,-0.0592,-0.0558,-0.0537,-0.0397,-0.023,-0.0055,0.016,0.025,0.0406,0.045,0.038,0.0397,0.0432,0.0422,0.0521,0.0521,0.0521,0.0521,0.0521,0,-0.0556,-0.0583,-0.0633,-0.0672,-0.0684,-0.0718,-0.074,-0.0702,-0.069,-0.0596,-0.0575,-0.0426,-0.0312,-0.0024,0.0151,0.0392,0.0422,0.0481,0.0476,0.0431,0.0445,0.0435,0.0426,0.0521,0.0521,0.0521,0.0521,0,-0.0601,-0.0626,-0.0658,-0.0741,-0.0785,-0.082,-0.0835,-0.0835,-0.0767,-0.0727,-0.0582,-0.0425,-0.0245,-0.0018,0.0156,0.0331,0.0436,0.0481,0.0483,0.0479,0.0432,0.0444,0.0435,0.0521,0.0521,0.0521,0.0521,0,-0.0639,-0.0679,-0.0735,-0.08,-0.0863,-0.0897,-0.0898,-0.0851,-0.082,-0.069,-0.0641,-0.0429,-0.0292,-0.0051,0.0119,0.0279,0.032,0.0358,0.0366,0.0368,0.0293,0.0209,0.0257,0,0,0,0,0,-0.0676,-0.0727,-0.0794,-0.0862,-0.092,-0.095,-0.0949,-0.0927,-0.0859,-0.0757,-0.0688,-0.0503,-0.0227,-0.0105,0.0054,0.009,0.0314,0.0275,0.0353,0.0521,0.0521,0.0456,0,0,0,0,0,0,-0.0707,-0.0777,-0.0802,-0.0895,-0.0949,-0.1002,-0.1001,-0.0952,-0.0871,-0.0775,-0.0616,-0.0498,-0.0226,-0.0319,0.0045,0.0093,0.0157,0.0418,0.042,0.0521,0.0521,0.0521,0.0455,0,0,0,0,0]}]]